Date String (YYYY-MM-DD hh:mm:ss) UTC,Instrument flags,Ambient pressure (hPa),Sample flow (lpm),Bypass flow (lpm),Sample temperature (°C),Ambient temperature (°C),ASC tube jacket temperature (°C),LED temperature (°C),Box temperature (°C),Sample RH (%),Span deviation,Mass concentration (μg/m³),Mass concentration (μg/m³),Mass concentration (μg/m³)
DateTimeUTC,F1_M11,P_M11,Q1_M11,Q2_M11,T1_M11,T2_M11,T3_M11,T4_M11,T5_M11,U1_M11,ZSPAN_M11,X0_M11,X2_M11,X1_M11
2022-05-25 23:00:00,,0823.9,5.00,0.00,29.8,29.0,00.0,38.7,31.7,12.3,0000.0,0004.21,0002.66,0002.22
2022-05-25 23:01:00,,0823.9,5.01,0.00,29.8,29.0,00.0,38.7,31.7,11.7,0000.0,0003.90,0002.62,0002.20
2022-05-25 23:02:00,,0824.0,5.00,0.00,29.9,29.0,00.0,38.7,31.7,11.5,0000.0,0003.83,0002.60,0002.19
2022-05-25 23:03:00,,0824.0,4.99,0.00,29.9,29.1,00.0,38.7,31.7,11.5,0000.0,0003.95,0002.63,0002.18
2022-05-25 23:04:00,,0823.9,5.00,0.00,29.9,28.7,00.0,38.7,31.7,11.2,0000.0,0004.05,0002.65,0002.19
2022-05-25 23:05:00,,0823.9,5.00,0.00,29.8,27.9,00.0,38.6,31.4,11.6,0000.0,0004.03,0002.62,0002.19
2022-05-25 23:06:00,,0824.0,5.00,0.00,29.8,27.7,00.0,38.6,31.4,11.6,0000.0,0003.89,0002.55,0002.16
2022-05-25 23:07:00,,0823.9,5.01,0.00,29.7,27.7,00.0,38.6,31.3,12.5,0000.0,0003.87,0002.55,0002.16
2022-05-25 23:08:00,,0824.0,4.99,0.00,29.7,27.8,00.0,38.6,31.3,12.8,0000.0,0003.88,0002.56,0002.17
2022-05-25 23:09:00,,0823.9,4.99,0.00,29.6,27.9,00.0,38.6,31.4,11.8,0000.0,0003.91,0002.54,0002.16
2022-05-25 23:10:00,,0823.9,5.00,0.00,29.6,28.1,00.0,38.6,31.4,11.6,0000.0,0004.71,0002.56,0002.16
2022-05-25 23:11:00,,0823.9,5.00,0.00,29.7,28.2,00.0,38.6,31.4,11.6,0000.0,0004.75,0002.58,0002.16
2022-05-25 23:12:00,,0823.9,5.02,0.00,29.7,28.4,00.0,38.6,31.5,12.0,0000.0,0004.85,0002.63,0002.18
2022-05-25 23:13:00,,0823.9,5.00,0.00,29.7,28.5,00.0,38.6,31.5,11.7,0000.0,0004.87,0002.65,0002.19
2022-05-25 23:14:00,,0824.0,4.99,0.00,29.7,28.6,00.0,38.6,31.5,11.6,0000.0,0004.83,0002.65,0002.19
2022-05-25 23:15:00,,0824.0,5.00,0.00,29.7,28.7,00.0,38.6,31.6,11.6,0000.0,0004.58,0002.57,0002.18
2022-05-25 23:16:00,,0824.0,5.01,0.00,29.7,28.8,00.0,38.6,31.6,11.2,0000.0,0004.37,0002.53,0002.16
2022-05-25 23:17:00,,0824.0,4.99,0.00,29.8,28.8,00.0,38.6,31.7,11.3,0000.0,0004.40,0002.58,0002.18
2022-05-25 23:18:00,,0824.0,4.99,0.00,29.8,28.9,00.0,38.6,31.7,11.2,0000.0,0004.72,0002.56,0002.18
2022-05-25 23:19:00,,0823.9,5.00,0.00,29.8,29.0,00.0,38.6,31.7,11.2,0000.0,0005.19,0002.57,0002.18
2022-05-25 23:20:00,,0823.9,5.00,0.00,29.9,29.1,00.0,38.7,31.8,11.2,0000.0,0005.19,0002.59,0002.19
2022-05-25 23:21:00,,0823.9,5.00,0.00,29.9,29.1,00.0,38.7,31.8,11.3,0000.0,0004.32,0002.55,0002.20
2022-05-25 23:22:00,,0823.9,4.99,0.00,29.9,29.2,00.0,38.7,31.8,11.8,0000.0,0004.27,0002.53,0002.20
2022-05-25 23:23:00,,0823.9,5.01,0.00,30.0,29.2,00.0,38.7,31.9,12.3,0000.0,0004.23,0002.52,0002.20
2022-05-25 23:24:00,,0823.9,5.00,0.00,30.0,29.0,00.0,38.7,31.8,11.8,0000.0,0004.18,0002.49,0002.20
2022-05-25 23:25:00,,0823.9,5.00,0.00,29.9,27.9,00.0,38.6,31.5,11.6,0000.0,0004.06,0002.46,0002.19
2022-05-25 23:26:00,,0823.8,5.00,0.00,29.8,27.2,00.0,38.6,31.3,11.5,0000.0,0004.11,0002.49,0002.19
2022-05-25 23:27:00,,0823.8,4.99,0.00,29.7,27.1,00.0,38.5,31.2,11.6,0000.0,0004.23,0002.53,0002.21
2022-05-25 23:28:00,,0823.8,5.01,0.00,29.6,27.2,00.0,38.5,31.2,11.8,0000.0,0004.34,0002.52,0002.19
2022-05-25 23:29:00,,0823.8,5.00,0.00,29.6,27.3,00.0,38.5,31.2,11.8,0000.0,0004.28,0002.52,0002.17
2022-05-25 23:30:00,,0823.8,4.99,0.00,29.6,27.5,00.0,38.5,31.3,11.8,0000.0,0003.63,0002.49,0002.15
2022-05-25 23:31:00,,0823.8,5.00,0.00,29.6,27.7,00.0,38.5,31.3,11.9,0000.0,0003.36,0002.47,0002.16
2022-05-25 23:32:00,,0823.8,5.00,0.00,29.6,27.9,00.0,38.5,31.4,11.9,0000.0,0003.40,0002.47,0002.15
2022-05-25 23:33:00,,0823.8,4.99,0.00,29.6,28.1,00.0,38.5,31.4,11.9,0000.0,0003.40,0002.47,0002.13
2022-05-25 23:34:00,,0823.8,5.01,0.00,29.6,28.3,00.0,38.5,31.4,11.8,0000.0,0003.39,0002.46,0002.12
2022-05-25 23:35:00,,0823.8,5.01,0.00,29.6,28.4,00.0,38.5,31.5,11.8,0000.0,0003.38,0002.46,0002.11
2022-05-25 23:36:00,,0823.8,4.99,0.00,29.6,28.5,00.0,38.5,31.5,11.7,0000.0,0003.37,0002.45,0002.09
2022-05-25 23:37:00,,0823.7,5.00,0.00,29.7,28.6,00.0,38.5,31.6,11.7,0000.0,0003.31,0002.41,0002.08
2022-05-25 23:38:00,,0823.7,5.00,0.00,29.7,28.7,00.0,38.5,31.6,11.8,0000.0,0003.23,0002.38,0002.07
2022-05-25 23:39:00,,0823.7,5.01,0.00,29.7,28.8,00.0,38.5,31.6,12.4,0000.0,0003.16,0002.38,0002.06
2022-05-25 23:40:00,,0823.6,5.00,0.00,29.8,28.9,00.0,38.6,31.7,12.5,0000.0,0003.15,0002.40,0002.07
2022-05-25 23:41:00,,0823.6,5.00,0.00,29.8,29.0,00.0,38.6,31.7,12.2,0000.0,0003.32,0002.43,0002.07
2022-05-25 23:42:00,,0823.6,5.00,0.00,29.8,29.0,00.0,38.6,31.8,12.2,0000.0,0003.93,0002.44,0002.06
2022-05-25 23:43:00,,0823.6,5.00,0.00,29.9,29.1,00.0,38.6,31.8,11.6,0000.0,0003.98,0002.46,0002.05
2022-05-25 23:44:00,,0823.7,5.01,0.00,29.9,29.1,00.0,38.7,31.8,11.6,0000.0,0004.15,0002.48,0002.05
2022-05-25 23:45:00,,0823.6,4.99,0.00,29.9,29.2,00.0,38.7,31.8,11.7,0000.0,0004.13,0002.47,0002.05
2022-05-25 23:46:00,,0823.6,5.00,0.00,30.0,29.2,00.0,38.7,31.9,12.3,0000.0,0004.30,0002.49,0002.05
2022-05-25 23:47:00,,0823.6,5.00,0.00,30.0,29.3,00.0,38.7,31.9,11.7,0000.0,0005.58,0002.51,0002.05
2022-05-25 23:48:00,,0823.6,4.99,0.00,30.0,29.1,00.0,38.7,31.9,11.7,0000.0,0005.84,0002.51,0002.05
2022-05-25 23:49:00,,0823.6,5.00,0.00,30.0,28.3,00.0,38.7,31.7,11.8,0000.0,0005.79,0002.48,0002.04
2022-05-25 23:50:00,,0823.6,5.01,0.00,29.9,27.9,00.0,38.6,31.5,11.7,0000.0,0005.73,0002.46,0002.04
2022-05-25 23:51:00,,0823.6,5.00,0.00,29.8,27.8,00.0,38.6,31.5,11.6,0000.0,0005.63,0002.44,0002.04
2022-05-25 23:52:00,,0823.6,5.00,0.00,29.8,27.9,00.0,38.6,31.5,12.3,0000.0,0005.46,0002.41,0002.04
2022-05-25 23:53:00,,0823.6,5.01,0.00,29.8,28.0,00.0,38.6,31.5,12.5,0000.0,0004.90,0002.41,0002.04
2022-05-25 23:54:00,,0823.6,4.99,0.00,29.8,28.1,00.0,38.6,31.2,12.1,0000.0,0004.79,0002.39,0002.03
2022-05-25 23:55:00,,0823.6,4.99,0.00,29.8,28.3,00.0,38.6,31.6,12.0,0000.0,0004.59,0002.33,0002.02
2022-05-25 23:56:00,,0823.7,5.00,0.00,29.8,28.5,00.0,38.6,31.6,12.7,0000.0,0004.65,0002.36,0002.01
2022-05-25 23:57:00,,0823.6,5.01,0.00,29.8,28.6,00.0,38.7,31.7,12.9,0000.0,0004.48,0002.33,0002.01
2022-05-25 23:58:00,,0823.6,5.00,0.00,29.8,28.7,00.0,38.7,31.7,12.1,0000.0,0003.31,0002.37,0002.03
2022-05-25 23:59:00,,0823.6,4.99,0.00,29.8,28.8,00.0,38.7,31.7,12.9,0000.0,0003.26,0002.40,0002.04
